Location: Putah Creek Observatory
(38.7021°N, 122.3865°W)
Time: 00:57:11
(UTC-08:00)

Hubble Space Telescope - Visible Passes

Search period start: 22 January 2019 00:00
Search period end: 01 February 2019 00:00
Orbit: 537 x 540 km, 28.5° (Epoch: 21 January)

Date Brightness Start Highest point End Pass type
(mag) Time Alt. Az. Time Alt. Az. Time Alt. Az.
22 Jan 2.8 05:09:26 19° S 05:09:26 19° S 05:11:53 10° SE visible
22 Jan 3.2 06:47:12 10° SW 06:49:25 14° SSW 06:51:37 10° SSE visible
23 Jan 3.1 04:59:35 17° SSE 04:59:35 17° SSE 05:01:18 10° SE visible
23 Jan 3.2 06:37:07 10° SW 06:38:50 12° SSW 06:40:33 10° S visible
24 Jan 3.4 04:49:45 14° SSE 04:49:45 14° SSE 04:50:40 10° SE visible
24 Jan 3.3 06:27:28 10° SSW 06:28:15 10° SSW 06:29:01 10° S visible
25 Jan 3.7 04:39:55 10° SSE 04:39:55 10° SSE 04:39:59 10° SE visible
